"startDT [UTC]","vpos","CH4 [ppm]","stdev(CH4) [ppm]","CO2 [ppm]","stdev(CO2) [ppm]","H2O [ppm]","stdev(H2O)","p_LGR [torr]","T_LGR [C]","mt1_LGR [us]","mt2_LGR [us]","T_ECpre [C]","T_EC1 [C]","T_EC2 [C]","p_inlet [hPa]","p_in [hPa]","p_out [hPa]","T_inlet [C]","RH_inlet [%]","dwpt_inlet [C]","T_vent [C]","RH_vent [%]","dwpt_vent [C]","flow_vent [l min-1]","flow_inlet [l min-1]","dwpt_sample [C]","T_room [C]"
2012-10-03 00:00:00,0.0,1.9074,0.0011,391.50,0.28,373.1,38.9,138.09,29.50,24.65,36.41,0.04,-272.75,-272.74,-42,569,-930,23.7,15.6,-3.9,24.1,15.7,-3.6,5.73,2.40,-21.6,29.1
2012-10-03 00:01:00,0.0,1.9073,0.0010,391.46,0.29,371.3,36.4,138.09,29.50,24.65,36.40,0.04,-272.75,-272.74,-42,569,-930,23.7,15.6,-4.0,24.1,15.7,-3.6,5.73,2.42,-21.6,29.1
2012-10-03 00:02:00,0.0,1.9074,0.0008,391.54,0.29,380.0,36.3,138.09,29.50,24.65,36.41,0.04,-272.75,-272.74,-42,569,-930,23.7,15.6,-3.9,24.1,15.7,-3.6,5.73,2.35,-21.6,29.1
2012-10-03 00:03:00,0.0,1.9067,0.0010,391.51,0.31,377.9,41.7,138.09,29.50,24.65,36.40,0.04,-272.75,-272.75,-43,569,-930,23.8,15.5,-4.0,24.1,15.6,-3.6,5.73,2.32,-21.6,29.1
2012-10-03 00:04:00,0.0,1.9071,0.0010,391.48,0.23,370.7,37.7,138.09,29.50,24.65,36.40,0.04,-272.75,-272.75,-43,569,-930,23.7,15.5,-4.0,24.1,15.6,-3.6,5.73,2.39,-21.6,29.1
2012-10-03 00:05:00,0.0,1.9074,0.0009,391.56,0.32,372.2,30.6,138.09,29.50,24.65,36.40,0.04,-272.74,-272.74,-42,569,-930,23.7,15.6,-3.9,24.1,15.7,-3.6,5.73,2.43,-21.6,29.1
2012-10-03 00:06:00,0.0,1.9070,0.0010,391.47,0.30,372.7,36.3,138.09,29.50,24.64,36.41,0.04,-272.75,-272.75,-42,569,-930,23.7,15.7,-3.9,24.1,15.7,-3.5,5.73,2.37,-21.6,29.1
2012-10-03 00:07:00,0.0,1.9065,0.0012,391.48,0.24,371.2,34.9,138.09,29.50,24.65,36.40,0.04,-272.75,-272.75,-42,569,-930,23.7,15.7,-3.9,24.1,15.8,-3.5,5.73,2.32,-21.6,29.1
2012-10-03 00:08:00,0.0,1.9067,0.0009,391.52,0.29,374.2,35.3,138.09,29.50,24.65,36.40,0.04,-272.74,-272.75,-42,569,-930,23.7,15.7,-3.9,24.1,15.8,-3.5,5.73,2.37,-21.6,29.1
2012-10-03 00:09:00,0.0,1.9068,0.0009,391.45,0.27,370.2,38.4,138.09,29.50,24.65,36.40,0.04,-272.75,-272.74,-43,569,-930,23.7,15.7,-3.8,24.1,15.8,-3.5,5.73,2.42,-21.6,29.1
2012-10-03 00:10:00,0.0,1.9067,0.0009,391.54,0.27,370.9,36.6,138.09,29.49,24.65,36.40,0.04,-272.75,-272.75,-43,569,-930,23.7,15.7,-3.8,24.1,15.8,-3.5,5.73,2.39,-21.6,29.1
2012-10-03 00:11:00,0.0,1.9072,0.0011,391.53,0.29,374.7,30.0,138.09,29.49,24.64,36.40,0.04,-272.75,-272.75,-42,569,-930,23.7,15.7,-3.8,24.1,15.8,-3.4,5.73,2.32,-21.6,29.1
2012-10-03 00:12:00,0.0,1.9067,0.0008,391.48,0.25,365.2,35.6,138.09,29.49,24.65,36.40,0.04,-272.75,-272.74,-42,569,-930,23.7,15.7,-3.9,24.1,15.8,-3.5,5.73,2.34,-21.6,29.1
2012-10-03 00:13:00,0.0,1.9062,0.0009,391.50,0.28,380.7,35.9,138.09,29.49,24.65,36.39,0.04,-272.75,-272.75,-42,569,-930,23.7,15.6,-3.9,24.1,15.7,-3.6,5.73,2.42,-21.6,29.1
2012-10-03 00:14:00,0.0,1.9066,0.0008,391.45,0.32,371.8,39.8,138.09,29.49,24.65,36.40,0.04,-272.75,-272.75,-42,569,-930,23.7,15.6,-4.0,24.1,15.6,-3.6,5.73,2.41,-21.6,29.1
2012-10-03 00:15:00,0.0,1.9065,0.0010,391.42,0.27,368.9,35.0,138.09,29.49,24.65,36.41,0.04,-272.74,-272.74,-43,569,-930,23.7,15.6,-3.9,24.1,15.7,-3.6,5.73,2.34,-21.6,29.2
2012-10-03 00:16:00,0.0,1.9064,0.0010,391.36,0.28,367.5,35.4,138.09,29.49,24.65,36.41,0.04,-272.74,-272.75,-42,569,-930,23.7,15.6,-3.9,24.1,15.7,-3.6,5.73,2.33,-21.6,29.1
2012-10-03 00:17:00,0.0,1.9063,0.0010,391.43,0.29,377.8,35.4,138.09,29.49,24.65,36.40,0.04,-272.75,-272.75,-42,569,-930,23.7,15.6,-4.0,24.1,15.7,-3.6,5.73,2.39,-21.6,29.1
2012-10-03 00:18:00,0.0,1.9066,0.0010,391.37,0.29,376.4,40.3,138.09,29.49,24.65,36.40,0.04,-272.75,-272.75,-42,569,-930,23.7,15.5,-4.0,24.1,15.6,-3.6,5.73,2.43,-21.6,29.1
2012-10-03 00:19:00,0.0,1.9067,0.0008,391.39,0.19,372.4,33.1,138.09,29.49,24.65,36.40,0.04,-272.75,-272.75,-42,569,-930,23.7,15.6,-3.9,24.1,15.7,-3.5,5.73,2.39,-21.6,29.1
2012-10-03 00:20:00,0.0,1.9066,0.0009,391.47,0.25,378.4,30.1,138.09,29.49,24.65,36.40,0.04,-272.74,-272.75,-42,569,-931,23.7,15.7,-3.9,24.1,15.8,-3.5,5.73,2.32,-21.6,29.1
2012-10-03 00:21:00,0.0,1.9063,0.0011,391.42,0.29,366.5,36.3,138.09,29.49,24.65,36.40,0.04,-272.75,-272.75,-43,569,-930,23.7,15.6,-3.9,24.1,15.7,-3.6,5.73,2.36,-21.6,29.0
2012-10-03 00:22:00,0.0,1.9067,0.0011,391.51,0.26,375.1,35.9,138.09,29.49,24.65,36.40,0.04,-272.74,-272.75,-42,569,-930,23.7,15.6,-3.9,24.1,15.7,-3.6,5.73,2.42,-21.6,29.1
2012-10-03 00:23:00,0.0,1.9063,0.0010,391.48,0.24,375.6,30.3,138.09,29.49,24.65,36.40,0.04,-272.75,-272.74,-42,569,-930,23.7,15.6,-3.9,24.1,15.7,-3.6,5.73,2.40,-21.6,29.1
2012-10-03 00:24:00,0.0,1.9064,0.0009,391.40,0.25,380.0,39.3,138.09,29.49,24.65,36.41,0.04,-272.75,-272.75,-42,569,-930,23.7,15.6,-3.9,24.1,15.7,-3.6,5.73,2.33,-21.6,29.2
2012-10-03 00:25:00,0.0,1.9069,0.0009,391.39,0.33,365.3,39.2,138.09,29.49,24.65,36.41,0.04,-272.75,-272.75,-42,569,-930,23.7,15.6,-4.0,24.1,15.6,-3.6,5.73,2.33,-21.6,29.2
2012-10-03 00:26:00,0.0,1.9065,0.0009,391.52,0.32,370.1,37.7,138.09,29.49,24.65,36.40,0.04,-272.75,-272.75,-42,569,-930,23.7,15.5,-4.0,24.0,15.6,-3.7,5.73,2.41,-21.6,29.1
2012-10-03 00:27:00,0.0,1.9069,0.0010,391.48,0.31,373.3,35.9,138.09,29.49,24.65,36.40,0.04,-272.75,-272.75,-43,569,-930,23.7,15.5,-4.0,24.1,15.6,-3.6,5.73,2.42,-21.6,29.1
2012-10-03 00:28:00,0.0,1.9070,0.0011,391.49,0.24,365.5,34.3,138.09,29.49,24.65,36.40,0.28,-270.79,-271.48,-42,569,-930,23.7,15.5,-4.0,24.1,15.6,-3.6,5.42,2.46,-26.2,29.1
2012-10-03 00:29:00,0.0,1.9070,0.0010,391.51,0.29,377.0,34.6,138.09,29.49,24.65,36.40,0.04,-272.75,-272.75,-42,569,-930,23.7,15.6,-4.0,24.1,15.7,-3.6,5.73,2.33,-21.6,29.1
2012-10-03 00:30:00,0.0,1.9078,0.0010,391.62,0.27,373.4,40.8,138.09,29.49,24.64,36.39,0.04,-272.75,-272.75,-42,569,-930,23.7,15.5,-4.0,24.1,15.6,-3.6,5.73,2.39,-21.6,29.1
2012-10-03 00:31:00,0.0,1.9075,0.0009,391.51,0.32,370.2,41.5,138.09,29.49,24.64,36.40,0.04,-272.75,-272.75,-42,569,-930,23.7,15.5,-4.0,24.1,15.6,-3.7,5.73,2.42,-21.6,29.1
2012-10-03 00:32:00,0.0,1.9070,0.0009,391.42,0.25,369.7,38.5,138.09,29.49,24.65,36.41,0.04,-272.75,-272.74,-43,569,-930,23.7,15.5,-4.1,24.1,15.6,-3.7,5.73,2.38,-21.6,29.1
2012-10-03 00:33:00,0.0,1.9075,0.0010,391.43,0.27,375.9,35.5,138.09,29.49,24.65,36.41,0.04,-272.74,-272.75,-43,569,-930,23.7,15.4,-4.1,24.1,15.5,-3.7,5.73,2.32,-21.6,29.1
2012-10-03 00:34:00,0.0,1.9078,0.0009,391.56,0.26,370.2,37.2,138.09,29.49,24.65,36.40,0.04,-272.75,-272.75,-42,569,-931,23.7,15.6,-3.9,24.1,15.7,-3.6,5.73,2.36,-21.6,29.1
2012-10-03 00:35:00,0.0,1.9074,0.0010,391.54,0.31,378.1,30.7,138.09,29.49,24.65,36.40,0.04,-272.75,-272.75,-42,569,-930,23.7,15.5,-4.0,24.1,15.6,-3.6,5.73,2.43,-21.6,29.1
2012-10-03 00:36:00,0.0,1.9078,0.0010,391.50,0.28,368.8,37.1,138.09,29.49,24.65,36.41,0.04,-272.74,-272.75,-42,569,-931,23.7,15.5,-4.0,24.1,15.5,-3.7,5.73,2.41,-21.6,29.2
2012-10-03 00:37:00,0.0,1.9073,0.0009,391.62,0.27,371.0,38.2,138.09,29.49,24.65,36.40,0.04,-272.75,-272.75,-42,569,-930,23.7,15.4,-4.1,24.1,15.5,-3.7,5.73,2.34,-21.6,29.1
2012-10-03 00:38:00,0.0,1.9078,0.0007,391.58,0.28,369.3,39.7,138.09,29.49,24.65,36.40,0.04,-272.75,-272.75,-42,569,-930,23.8,15.5,-4.0,24.1,15.6,-3.7,5.73,2.33,-21.6,29.1
2012-10-03 00:39:00,0.0,1.9078,0.0011,391.65,0.33,366.8,37.0,138.09,29.49,24.65,36.40,0.04,-272.74,-272.75,-43,569,-930,23.8,15.6,-3.9,24.1,15.7,-3.6,5.73,2.40,-21.6,29.1
2012-10-03 00:40:00,0.0,1.9075,0.0009,391.49,0.30,364.2,37.8,138.09,29.49,24.65,36.41,0.04,-272.74,-272.74,-42,569,-930,23.7,15.5,-4.0,24.1,15.6,-3.6,5.73,2.42,-21.6,29.1
2012-10-03 00:41:00,0.0,1.9073,0.0008,391.46,0.25,362.3,35.4,138.09,29.49,24.64,36.41,0.04,-272.75,-272.75,-42,569,-931,23.7,15.4,-4.1,24.1,15.5,-3.7,5.73,2.37,-21.6,29.1
2012-10-03 00:42:00,0.0,1.9073,0.0010,391.60,0.25,366.9,39.5,138.09,29.48,24.65,36.40,0.04,-272.75,-272.75,-42,569,-930,23.7,15.4,-4.1,24.1,15.5,-3.7,5.73,2.33,-21.6,29.1
2012-10-03 00:43:00,0.0,1.9073,0.0010,391.54,0.29,370.2,31.2,138.09,29.48,24.65,36.40,0.04,-272.75,-272.74,-42,569,-930,23.7,15.4,-4.2,24.1,15.5,-3.8,5.73,2.36,-21.6,29.1
2012-10-03 00:44:00,0.0,1.9073,0.0011,391.53,0.29,372.4,31.8,138.09,29.48,24.65,36.40,0.04,-272.74,-272.75,-43,569,-931,23.7,15.4,-4.1,24.1,15.5,-3.7,5.73,2.42,-21.6,29.2
2012-10-03 00:45:00,0.0,1.9072,0.0011,391.53,0.24,368.1,34.2,138.09,29.48,24.65,36.40,0.04,-272.74,-272.74,-43,569,-930,23.7,15.5,-4.0,24.1,15.5,-3.7,5.73,2.40,-21.6,29.1
2012-10-03 00:46:00,0.0,1.9074,0.0009,391.49,0.28,368.1,38.4,138.09,29.48,24.65,36.40,0.04,-272.74,-272.74,-42,569,-931,23.7,15.5,-4.0,24.1,15.6,-3.7,5.73,2.33,-21.6,29.0
2012-10-03 00:47:00,0.0,1.9073,0.0010,391.56,0.29,377.0,33.5,138.09,29.48,24.65,36.40,0.04,-272.75,-272.75,-42,569,-930,23.7,15.5,-4.0,24.1,15.6,-3.6,5.73,2.34,-21.6,29.1
2012-10-03 00:48:00,0.0,1.9074,0.0008,391.43,0.30,360.7,36.5,138.09,29.48,24.65,36.41,0.04,-272.74,-272.75,-42,569,-931,23.7,15.5,-4.0,24.1,15.6,-3.6,5.73,2.41,-21.6,29.1
2012-10-03 00:49:00,0.0,1.9073,0.0009,391.52,0.29,358.4,37.8,138.09,29.48,24.65,36.40,0.04,-272.74,-272.75,-42,569,-931,23.7,15.4,-4.1,24.1,15.6,-3.7,5.73,2.42,-21.6,29.1
2012-10-03 00:50:00,0.0,1.9078,0.0008,391.60,0.27,366.7,36.5,138.09,29.48,24.64,36.40,0.04,-272.74,-272.75,-43,569,-930,23.8,15.5,-4.0,24.1,15.6,-3.7,5.73,2.35,-21.6,29.1
2012-10-03 00:51:00,0.0,1.9075,0.0010,391.43,0.28,371.8,35.3,138.09,29.48,24.65,36.41,0.04,-272.75,-272.75,-43,569,-931,23.7,15.4,-4.1,24.1,15.5,-3.8,5.73,2.33,-21.6,29.1
2012-10-03 00:52:00,0.0,1.9075,0.0011,391.68,0.24,376.1,42.5,138.09,29.48,24.65,36.39,0.04,-272.75,-272.75,-42,569,-930,23.7,15.3,-4.2,24.1,15.4,-3.8,5.73,2.39,-21.6,29.1
2012-10-03 00:53:00,0.0,1.9075,0.0009,391.57,0.26,366.7,32.8,138.09,29.48,24.65,36.40,0.04,-272.75,-272.75,-42,569,-931,23.7,15.3,-4.2,24.1,15.4,-3.8,5.73,2.43,-21.6,29.1
2012-10-03 00:54:00,0.0,1.9078,0.0010,391.51,0.30,364.6,37.0,138.09,29.48,24.65,36.40,0.04,-272.75,-272.75,-42,569,-930,23.7,15.3,-4.2,24.1,15.4,-3.8,5.73,2.38,-21.6,29.1
2012-10-03 00:55:00,0.0,1.9083,0.0008,391.50,0.23,374.0,36.6,138.09,29.48,24.65,36.40,0.04,-272.75,-272.75,-42,569,-930,23.7,15.3,-4.2,24.1,15.4,-3.8,5.73,2.33,-21.6,29.1
2012-10-03 00:56:00,0.0,1.9080,0.0012,391.49,0.33,371.6,33.1,138.09,29.48,24.65,36.40,0.04,-272.75,-272.75,-43,569,-931,23.7,15.3,-4.2,24.1,15.4,-3.9,5.73,2.35,-21.6,29.1
2012-10-03 00:57:00,0.0,1.9079,0.0009,391.54,0.26,365.7,38.7,138.09,29.48,24.65,36.40,0.04,-272.75,-272.75,-43,569,-930,23.7,15.3,-4.2,24.0,15.4,-3.8,5.73,2.41,-21.6,29.1
2012-10-03 00:58:00,0.0,1.9082,0.0011,391.57,0.30,360.5,34.2,138.09,29.48,24.65,36.40,0.04,-272.75,-272.75,-42,569,-931,23.7,15.3,-4.1,24.1,15.4,-3.8,5.73,2.41,-21.6,29.1
2012-10-03 00:59:00,0.0,1.9085,0.0010,391.50,0.26,375.3,38.2,138.09,29.48,24.65,36.40,0.04,-272.74,-272.74,-42,569,-930,23.7,15.4,-4.1,24.1,15.5,-3.8,5.73,2.35,-21.6,29.1
2012-10-03 01:00:00,0.0,1.9085,0.0008,391.45,0.26,364.6,37.7,138.09,29.48,24.65,36.41,0.04,-272.74,-272.75,-42,569,-931,23.7,15.3,-4.1,24.1,15.5,-3.8,5.73,2.32,-21.6,29.1
2012-10-03 01:01:00,0.0,1.9088,0.0009,391.64,0.28,362.5,37.9,138.09,29.48,24.64,36.40,0.04,-272.75,-272.75,-42,569,-931,23.7,15.5,-4.0,24.1,15.6,-3.7,5.73,2.38,-21.6,29.1
2012-10-03 01:02:00,0.0,1.9081,0.0010,391.59,0.31,360.5,38.6,138.09,29.48,24.65,36.40,0.04,-272.75,-272.75,-43,569,-930,23.7,15.5,-4.0,24.1,15.6,-3.6,5.73,2.42,-21.6,29.1
2012-10-03 01:03:00,0.0,1.9088,0.0008,391.56,0.26,361.0,32.5,138.09,29.48,24.64,36.41,0.04,-272.74,-272.75,-43,569,-931,23.7,15.3,-4.2,24.1,15.4,-3.8,5.73,2.38,-21.6,29.0
2012-10-03 01:04:00,0.0,1.9087,0.0009,391.64,0.29,357.9,37.2,138.09,29.48,24.65,36.40,0.04,-272.75,-272.75,-42,569,-930,23.7,15.3,-4.2,24.1,15.4,-3.9,5.73,2.33,-21.6,29.0
2012-10-03 01:05:00,0.0,1.9091,0.0010,391.67,0.18,368.0,38.8,138.09,29.47,24.65,36.40,0.04,-272.75,-272.75,-42,569,-931,23.7,15.3,-4.2,24.1,15.4,-3.8,5.73,2.35,-21.6,29.1
2012-10-03 01:06:00,0.0,1.9089,0.0011,391.80,0.30,364.8,34.8,138.09,29.47,24.65,36.39,0.04,-272.74,-272.74,-42,569,-931,23.7,15.3,-4.1,24.1,15.4,-3.8,5.73,2.41,-21.6,29.1
2012-10-03 01:07:00,0.0,1.9092,0.0009,391.65,0.30,373.9,41.6,138.09,29.47,24.64,36.40,0.04,-272.75,-272.75,-42,569,-930,23.7,15.3,-4.2,24.1,15.4,-3.9,5.73,2.42,-21.6,29.1
2012-10-03 01:08:00,0.0,1.9091,0.0010,391.64,0.26,361.5,34.3,138.09,29.47,24.65,36.40,0.04,-272.75,-272.75,-42,569,-931,23.7,15.2,-4.3,24.1,15.3,-3.9,5.73,2.35,-21.6,29.1
2012-10-03 01:09:00,0.0,1.9094,0.0011,391.57,0.31,363.0,36.1,138.09,29.47,24.65,36.41,0.04,-272.75,-272.75,-42,569,-931,23.7,15.3,-4.2,24.1,15.4,-3.8,5.73,2.33,-21.6,29.1
2012-10-03 01:10:00,0.0,1.9089,0.0011,391.63,0.28,361.4,35.2,138.09,29.47,24.65,36.40,0.04,-272.75,-272.75,-42,569,-930,23.7,15.3,-4.2,24.1,15.4,-3.8,5.73,2.38,-21.6,29.1
2012-10-03 01:11:00,0.0,1.9094,0.0010,391.68,0.27,374.8,34.3,138.09,29.47,24.64,36.40,0.04,-272.75,-272.75,-42,569,-931,23.7,15.2,-4.3,24.1,15.3,-3.9,5.73,2.43,-21.6,29.1
2012-10-03 01:12:00,0.0,1.9090,0.0011,391.60,0.27,361.1,34.6,138.09,29.47,24.65,36.41,0.04,-272.74,-272.75,-42,569,-930,23.7,15.1,-4.3,24.1,15.3,-3.9,5.73,2.39,-21.6,29.1
2012-10-03 01:13:00,0.0,1.9092,0.0011,391.61,0.21,365.2,39.9,138.09,29.47,24.65,36.41,0.04,-272.74,-272.74,-42,569,-931,23.7,15.1,-4.4,24.1,15.2,-4.0,5.73,2.33,-21.6,29.1
2012-10-03 01:14:00,0.0,1.9088,0.0009,391.60,0.26,367.8,37.3,138.09,29.47,24.65,36.41,0.04,-272.75,-272.74,-43,569,-931,23.8,15.1,-4.3,24.1,15.2,-4.0,5.73,2.34,-21.6,29.1
2012-10-03 01:15:00,0.0,1.9091,0.0009,391.61,0.28,376.6,34.6,138.09,29.47,24.65,36.40,0.04,-272.74,-272.75,-43,569,-930,23.7,15.1,-4.4,24.1,15.2,-4.0,5.73,2.41,-21.6,29.1
2012-10-03 01:16:00,0.0,1.9091,0.0010,391.62,0.30,364.9,29.8,138.09,29.47,24.65,36.40,0.04,-272.74,-272.75,-42,569,-931,23.7,15.1,-4.4,24.1,15.2,-4.0,5.73,2.41,-21.6,29.1
2012-10-03 01:17:00,0.0,1.9094,0.0010,391.54,0.29,360.9,32.7,138.09,29.46,24.65,36.41,0.04,-272.75,-272.75,-42,569,-931,23.7,15.0,-4.4,24.1,15.2,-4.0,5.73,2.35,-21.6,29.1
2012-10-03 01:18:00,0.0,1.9089,0.0009,391.62,0.28,375.6,43.7,138.09,29.46,24.65,36.41,0.04,-272.75,-272.75,-42,569,-931,23.8,15.1,-4.4,24.1,15.2,-4.0,5.73,2.33,-21.6,29.1
2012-10-03 01:19:00,0.0,1.9089,0.0009,391.62,0.28,373.4,37.2,138.09,29.46,24.65,36.41,0.04,-272.75,-272.75,-42,569,-931,23.7,15.0,-4.4,24.0,15.1,-4.1,5.73,2.39,-21.6,29.2
2012-10-03 01:20:00,0.0,1.9091,0.0010,391.66,0.28,359.9,38.0,138.09,29.47,24.65,36.40,0.04,-272.75,-272.75,-43,569,-930,23.8,15.1,-4.3,24.1,15.1,-4.1,5.73,2.43,-21.6,29.1
2012-10-03 01:21:00,0.0,1.9085,0.0009,391.66,0.28,366.5,29.1,138.09,29.47,24.65,36.40,0.04,-272.74,-272.75,-43,569,-931,23.8,15.0,-4.4,24.1,15.1,-4.1,5.73,2.37,-21.6,29.2
2012-10-03 01:22:00,0.0,1.9088,0.0012,391.59,0.30,365.5,36.7,138.09,29.47,24.65,36.40,0.04,-272.75,-272.74,-42,569,-931,23.8,14.9,-4.5,24.1,15.0,-4.1,5.73,2.32,-21.6,29.2
2012-10-03 01:23:00,0.0,1.9090,0.0008,391.57,0.29,365.0,38.7,138.09,29.47,24.65,36.40,0.04,-272.74,-272.74,-42,569,-931,23.7,14.9,-4.5,24.1,15.0,-4.1,5.73,2.36,-21.6,29.1
2012-10-03 01:24:00,0.0,1.9085,0.0009,391.59,0.29,370.2,37.6,138.09,29.47,24.65,36.41,0.04,-272.75,-272.75,-42,569,-931,23.7,15.0,-4.4,24.1,15.1,-4.1,5.73,2.42,-21.6,29.1
2012-10-03 01:25:00,0.0,1.9089,0.0010,391.61,0.24,371.0,35.1,138.09,29.47,24.65,36.40,0.04,-272.75,-272.75,-42,569,-930,23.8,15.1,-4.3,24.1,15.2,-4.0,5.73,2.41,-21.6,29.1
2012-10-03 01:26:00,0.0,1.9089,0.0009,391.72,0.22,369.8,31.9,138.09,29.47,24.65,36.40,0.04,-272.74,-272.74,-43,569,-931,23.8,15.0,-4.4,24.1,15.1,-4.0,5.73,2.34,-21.6,29.1
2012-10-03 01:27:00,0.0,1.9088,0.0010,391.66,0.28,372.5,38.0,138.09,29.47,24.65,36.40,0.04,-272.74,-272.75,-43,569,-931,23.8,15.0,-4.4,24.1,15.1,-4.1,5.73,2.33,-21.6,29.1
2012-10-03 01:28:00,0.0,1.9088,0.0009,391.68,0.27,369.3,34.1,138.09,29.47,24.65,36.40,0.04,-272.75,-272.75,-42,569,-930,23.8,14.9,-4.5,24.1,15.0,-4.1,5.73,2.40,-21.6,29.1
2012-10-03 01:29:00,0.0,1.9091,0.0011,391.57,0.26,363.4,31.7,138.09,29.47,24.65,36.41,0.04,-272.75,-272.75,-42,569,-931,23.8,14.8,-4.6,24.1,14.9,-4.2,5.73,2.42,-21.6,29.1
2012-10-03 01:30:00,0.0,1.9090,0.0010,391.60,0.26,371.4,34.6,138.09,29.47,24.65,36.40,0.04,-272.75,-272.74,-42,569,-930,23.8,14.7,-4.6,24.1,14.8,-4.3,5.73,2.37,-21.6,29.1
2012-10-03 01:31:00,0.0,1.9093,0.0010,391.55,0.26,376.1,39.9,138.09,29.47,24.65,36.41,0.04,-272.75,-272.75,-42,569,-931,23.8,14.8,-4.6,24.1,14.9,-4.3,5.73,2.32,-21.6,29.2
2012-10-03 01:32:00,0.0,1.9091,0.0010,391.71,0.26,382.1,33.1,138.09,29.47,24.65,36.40,0.04,-272.74,-272.75,-43,569,-931,23.8,14.9,-4.5,24.1,15.0,-4.1,5.73,2.37,-21.6,29.2
2012-10-03 01:33:00,0.0,1.9087,0.0009,391.66,0.28,372.0,33.2,138.09,29.47,24.65,36.40,0.04,-272.74,-272.74,-43,569,-931,23.8,14.9,-4.5,24.1,15.0,-4.1,5.73,2.42,-21.6,29.2
2012-10-03 01:34:00,0.0,1.9089,0.0010,391.72,0.26,365.4,35.3,138.09,29.48,24.65,36.40,0.04,-272.75,-272.75,-42,569,-931,23.8,14.8,-4.5,24.1,15.0,-4.2,5.73,2.40,-21.5,29.1
2012-10-03 01:35:00,0.0,1.9089,0.0009,391.62,0.28,377.8,39.2,138.09,29.48,24.65,36.40,0.04,-272.75,-272.75,-42,569,-930,23.8,14.9,-4.5,24.1,15.0,-4.2,5.73,2.34,-21.6,29.2
2012-10-03 01:36:00,0.0,1.9091,0.0011,391.67,0.24,375.1,33.8,138.09,29.48,24.65,36.40,0.04,-272.75,-272.75,-42,569,-931,23.8,14.9,-4.5,24.2,15.0,-4.1,5.73,2.34,-21.6,29.1
2012-10-03 01:37:00,0.0,1.9093,0.0008,391.66,0.25,372.8,34.8,138.09,29.47,24.65,36.40,0.04,-272.75,-272.75,-43,569,-931,23.8,14.8,-4.6,24.1,14.9,-4.2,5.73,2.40,-21.6,29.2
2012-10-03 01:38:00,0.0,1.9091,0.0009,391.70,0.27,365.3,38.0,138.09,29.47,24.65,36.40,0.04,-272.75,-272.75,-43,569,-931,23.8,14.8,-4.6,24.1,14.9,-4.2,5.73,2.42,-21.5,29.2
2012-10-03 01:39:00,0.0,1.9091,0.0011,391.76,0.22,370.4,34.0,138.09,29.48,24.65,36.40,0.04,-272.74,-272.75,-43,569,-931,23.8,14.9,-4.5,24.1,15.0,-4.2,5.73,2.37,-21.6,29.2
2012-10-03 01:40:00,0.0,1.9091,0.0010,391.67,0.27,378.1,33.9,138.09,29.48,24.65,36.41,0.04,-272.75,-272.74,-43,569,-930,23.8,14.9,-4.5,24.1,15.0,-4.1,5.73,2.33,-21.5,29.2
2012-10-03 01:41:00,0.0,1.9092,0.0009,391.75,0.30,362.3,35.2,138.09,29.48,24.65,36.40,0.04,-272.74,-272.75,-42,569,-931,23.8,14.9,-4.4,24.2,15.0,-4.1,5.73,2.35,-21.5,29.2
2012-10-03 01:42:00,0.0,1.9090,0.0009,391.72,0.29,381.5,39.8,138.09,29.48,24.65,36.40,0.04,-272.75,-272.75,-42,569,-931,23.8,14.9,-4.5,24.2,15.1,-4.0,5.73,2.41,-21.5,29.2
2012-10-03 01:43:00,0.0,1.9087,0.0011,391.76,0.31,363.9,39.7,138.09,29.48,24.65,36.40,0.04,-272.74,-272.75,-43,569,-931,23.8,15.0,-4.4,24.2,15.1,-4.1,5.73,2.42,-21.5,29.2
2012-10-03 01:44:00,0.0,1.9087,0.0010,391.71,0.25,367.4,39.2,138.09,29.48,24.65,36.40,0.04,-272.74,-272.75,-43,569,-931,23.8,14.9,-4.4,24.1,15.1,-4.1,5.73,2.36,-21.5,29.2
2012-10-03 01:45:00,0.0,1.9090,0.0010,391.74,0.29,381.7,31.1,138.09,29.48,24.65,36.40,0.04,-272.75,-272.75,-43,569,-931,23.8,14.9,-4.5,24.1,15.0,-4.1,5.73,2.32,-21.5,29.2
2012-10-03 01:46:00,0.0,1.9086,0.0009,391.75,0.25,369.8,38.8,138.09,29.48,24.65,36.40,0.04,-272.74,-272.75,-43,569,-931,23.8,14.8,-4.5,24.1,14.9,-4.2,5.73,2.37,-21.5,29.2
2012-10-03 01:47:00,0.0,1.9087,0.0008,391.76,0.30,370.5,34.5,138.09,29.49,24.65,36.40,0.04,-272.75,-272.75,-43,569,-931,23.9,14.8,-4.5,24.1,14.9,-4.2,5.73,2.42,-21.5,29.2
2012-10-03 01:48:00,0.0,1.9090,0.0008,391.72,0.25,371.8,33.6,138.09,29.49,24.65,36.40,0.04,-272.75,-272.75,-42,569,-931,23.8,14.9,-4.4,24.1,15.1,-4.1,5.73,2.41,-21.5,29.2
2012-10-03 01:49:00,0.0,1.9089,0.0010,391.76,0.23,374.5,34.4,138.09,29.49,24.65,36.40,0.04,-272.75,-272.75,-42,569,-931,23.8,14.9,-4.5,24.1,15.0,-4.1,5.73,2.36,-21.5,29.2
2012-10-03 01:50:00,0.0,1.9089,0.0011,391.79,0.30,366.1,37.7,138.09,29.49,24.65,36.40,0.04,-272.74,-272.75,-43,569,-931,23.9,14.9,-4.5,24.2,15.0,-4.1,5.73,2.33,-21.5,29.2
2012-10-03 01:51:00,0.0,1.9086,0.0010,391.82,0.30,360.8,42.2,138.09,29.49,24.65,36.40,0.04,-272.75,-272.75,-43,569,-931,23.9,14.9,-4.5,24.1,15.0,-4.1,5.73,2.36,-21.5,29.2
2012-10-03 01:52:00,0.0,1.9083,0.0010,391.70,0.24,378.0,38.9,138.09,29.49,24.65,36.40,0.04,-272.75,-272.75,-43,569,-931,23.8,14.8,-4.6,24.1,14.9,-4.3,5.73,2.41,-21.5,29.2
2012-10-03 01:53:00,0.0,1.9084,0.0010,391.76,0.24,366.7,33.0,138.09,29.49,24.65,36.40,0.04,-272.74,-272.74,-43,569,-930,23.9,14.9,-4.5,24.1,15.0,-4.1,5.73,2.41,-21.5,29.2
2012-10-03 01:54:00,0.0,1.9081,0.0008,391.65,0.34,368.9,41.5,138.09,29.49,24.65,36.41,0.04,-272.75,-272.75,-43,569,-931,23.9,14.9,-4.4,24.2,15.0,-4.1,5.73,2.36,-21.5,29.1
2012-10-03 01:55:00,0.0,1.9080,0.0009,391.68,0.26,373.9,38.3,138.09,29.49,24.65,36.41,0.04,-272.75,-272.75,-42,569,-931,23.8,14.9,-4.4,24.1,15.0,-4.1,5.73,2.32,-21.6,29.1
2012-10-03 01:56:00,0.0,1.9081,0.0009,391.68,0.24,375.0,38.9,138.09,29.49,24.65,36.40,0.04,-272.74,-272.75,-42,569,-931,23.8,14.9,-4.5,24.1,15.0,-4.1,5.73,2.35,-21.6,29.2
2012-10-03 01:57:00,0.0,1.9075,0.0012,391.61,0.25,379.5,29.4,138.09,29.49,24.65,36.40,0.04,-272.74,-272.75,-42,569,-931,23.8,14.9,-4.5,24.1,15.0,-4.2,5.73,2.41,-21.6,29.2
2012-10-03 01:58:00,0.0,1.9078,0.0009,391.64,0.31,371.6,40.0,138.09,29.49,24.65,36.40,0.04,-272.75,-272.75,-42,569,-931,23.8,14.7,-4.6,24.2,14.8,-4.3,5.73,2.41,-21.6,29.2
2012-10-03 01:59:00,0.0,1.9080,0.0011,391.76,0.33,375.2,36.8,138.09,29.49,24.65,36.40,0.04,-272.75,-272.75,-43,569,-931,23.8,14.7,-4.6,24.2,14.9,-4.2,5.73,2.36,-21.6,29.2
2012-10-03 02:00:00,0.0,1.9077,0.0011,391.66,0.25,366.6,32.7,138.09,29.49,24.65,36.40,0.04,-272.75,-272.75,-43,569,-931,23.8,14.8,-4.5,24.1,14.9,-4.2,5.73,2.33,-21.6,29.2
2012-10-03 02:01:00,0.0,1.9076,0.0010,391.78,0.26,379.3,39.8,138.09,29.49,24.65,36.40,0.04,-272.75,-272.75,-42,569,-931,23.8,14.8,-4.6,24.1,14.9,-4.2,5.73,2.35,-21.6,29.2
2012-10-03 02:02:00,0.0,1.9075,0.0010,391.77,0.30,365.7,40.0,138.09,29.49,24.65,36.39,0.04,-272.75,-272.75,-42,569,-931,23.8,14.7,-4.6,24.1,14.9,-4.2,5.73,2.41,-21.6,29.2
2012-10-03 02:03:00,0.0,1.9074,0.0010,391.61,0.28,360.9,40.8,138.09,29.50,24.65,36.41,0.04,-272.75,-272.74,-42,569,-931,23.8,14.8,-4.6,24.1,14.9,-4.2,5.73,2.42,-21.6,29.2
2012-10-03 02:04:00,0.0,1.9073,0.0010,391.68,0.31,369.8,31.7,138.09,29.49,24.65,36.40,0.04,-272.75,-272.75,-42,569,-931,23.8,14.8,-4.5,24.2,14.9,-4.2,5.73,2.37,-21.6,29.2
2012-10-03 02:05:00,0.0,1.9070,0.0010,391.68,0.28,367.0,39.3,138.09,29.49,24.65,36.40,0.04,-272.74,-272.75,-42,569,-931,23.9,14.8,-4.5,24.2,14.9,-4.2,5.73,2.33,-21.6,29.2
2012-10-03 02:06:00,0.0,1.9078,0.0010,391.70,0.32,361.6,39.3,138.09,29.50,24.65,36.40,0.04,-272.74,-272.75,-43,569,-931,23.8,14.9,-4.4,24.1,15.0,-4.1,5.73,2.35,-21.6,29.2
2012-10-03 02:07:00,0.0,1.9070,0.0011,391.73,0.26,366.3,40.6,138.09,29.49,24.65,36.39,0.04,-272.74,-272.74,-43,569,-931,23.9,14.8,-4.5,24.2,15.0,-4.1,5.73,2.40,-21.6,29.2
2012-10-03 02:08:00,0.0,1.9078,0.0009,391.71,0.30,373.5,42.2,138.09,29.49,24.65,36.40,0.04,-272.75,-272.75,-43,569,-931,23.9,14.7,-4.6,24.2,14.8,-4.3,5.73,2.42,-21.6,29.2
2012-10-03 02:09:00,0.0,1.9075,0.0011,391.72,0.33,365.0,38.9,138.09,29.49,24.65,36.40,0.04,-272.75,-272.75,-43,569,-931,23.9,14.8,-4.5,24.2,14.9,-4.2,5.73,2.38,-21.6,29.2
2012-10-03 02:10:00,0.0,1.9079,0.0010,391.75,0.29,371.0,36.4,138.09,29.50,24.65,36.40,0.04,-272.74,-272.75,-42,570,-932,23.9,14.8,-4.5,24.2,15.0,-4.1,5.73,2.34,-21.6,29.2
2012-10-03 02:11:00,0.0,1.9080,0.0010,391.74,0.31,368.2,38.1,138.09,29.50,24.65,36.40,0.04,-272.74,-272.74,-42,569,-931,23.8,14.9,-4.5,24.2,15.0,-4.1,5.73,2.34,-21.6,29.3
2012-10-03 02:12:00,0.0,1.9079,0.0008,391.73,0.24,365.2,32.2,138.09,29.50,24.65,36.41,0.04,-272.75,-272.75,-42,569,-931,23.9,14.9,-4.5,24.2,15.0,-4.1,5.73,2.39,-21.6,29.3
2012-10-03 02:13:00,0.0,1.9082,0.0011,391.71,0.28,370.8,32.8,138.09,29.50,24.65,36.41,0.04,-272.75,-272.75,-43,569,-931,23.9,14.8,-4.5,24.2,15.0,-4.1,5.73,2.42,-21.6,29.2
2012-10-03 02:14:00,0.0,1.9085,0.0011,391.69,0.33,369.3,34.5,138.09,29.50,24.65,36.41,0.04,-272.75,-272.75,-43,569,-931,23.9,14.7,-4.6,24.2,14.8,-4.2,5.73,2.39,-21.6,29.2
2012-10-03 02:15:00,0.0,1.9089,0.0011,391.86,0.29,369.1,37.0,138.09,29.50,24.65,36.40,0.04,-272.75,-272.75,-43,569,-932,23.9,14.8,-4.5,24.2,14.9,-4.1,5.73,2.34,-21.6,29.2
2012-10-03 02:16:00,0.0,1.9094,0.0010,391.79,0.25,363.0,31.3,138.09,29.50,24.65,36.40,0.04,-272.75,-272.75,-42,570,-931,23.9,14.8,-4.5,24.2,14.9,-4.2,5.73,2.33,-21.5,29.3